When you browse on this site, cookies collect data to enhance your experience and personalize the content and advertising you see.
Visit our Privacy Policy to learn more. By continuing to use the site, you agree to this use of cookies and data.
  • In Hungary
  • List of Countries
  • For 7 days
  • Water Temperature
  • Weather Map
  • News
  • Weather Widgets
  • user-avatar
    Login

    Hourly Weather Tacoma

    Today, 22 November, Friday

    Time Temperature Precipitation Wind Pressure Humidity
    00:00 -8°C° 0 mm 4 mps 616 mmHg 57%
    01:00 -8°C° 0 mm 4 mps 616 mmHg 58%
    02:00 -8°C° 0 mm 4 mps 616 mmHg 59%
    03:00 -8°C° 0 mm 4 mps 616 mmHg 60%
    04:00 -8°C° 0 mm 4 mps 616 mmHg 62%
    05:00 -8°C° 0 mm 4 mps 616 mmHg 63%
    06:00 -8°C° 0 mm 4 mps 616 mmHg 64%
    07:00 -8°C° 0 mm 4 mps 616 mmHg 65%
    08:00 -8°C° 0 mm 4 mps 617 mmHg 65%
    09:00 -5°C° 0 mm 4 mps 617 mmHg 63%
    10:00 -3°C° 0 mm 4 mps 618 mmHg 60%
    11:00 -1°C° 0 mm 5 mps 618 mmHg 58%
    12:00 -1°C° 0 mm 4 mps 618 mmHg 57%
    13:00 0°C° 0 mm 4 mps 618 mmHg 57%
    14:00 +2°C° 0 mm 3 mps 618 mmHg 57%
    15:00 0°C° 0 mm 3 mps 618 mmHg 59%
    16:00 -2°C° 0 mm 3 mps 618 mmHg 61%
    17:00 -5°C° 0 mm 3 mps 618 mmHg 63%
    18:00 -5°C° 0 mm 3 mps 618 mmHg 64%
    19:00 -7°C° 0 mm 4 mps 618 mmHg 65%
    20:00 -7°C° 0 mm 4 mps 618 mmHg 66%
    21:00 -7°C° 0 mm 4 mps 618 mmHg 67%
    22:00 -7°C° 0 mm 4 mps 618 mmHg 68%
    23:00 -7°C° 0 mm 4 mps 618 mmHg 68%

    Tomorrow, 23 November, Saturday

    Time Temperature Precipitation Wind Pressure Humidity
    00:00 -7°C° 0 mm 4 mps 618 mmHg 67%
    01:00 -7°C° 0 mm 4 mps 618 mmHg 66%
    02:00 -6°C° 0 mm 5 mps 618 mmHg 65%
    03:00 -5°C° 0 mm 4 mps 618 mmHg 64%
    04:00 -5°C° 0 mm 4 mps 618 mmHg 63%
    05:00 -5°C° 0 mm 4 mps 618 mmHg 62%
    06:00 -5°C° 0 mm 4 mps 618 mmHg 62%
    07:00 -6°C° 0 mm 5 mps 618 mmHg 61%
    08:00 -5°C° 0 mm 5 mps 618 mmHg 61%
    09:00 -4°C° 0 mm 5 mps 619 mmHg 58%
    10:00 -2°C° 0 mm 5 mps 619 mmHg 56%
    11:00 -2°C° 0 mm 6 mps 619 mmHg 53%
    12:00 -1°C° 0 mm 6 mps 619 mmHg 53%
    13:00 -1°C° 0 mm 6 mps 618 mmHg 53%
    14:00 +1°C° 0 mm 6 mps 618 mmHg 52%
    15:00 -1°C° 0 mm 6 mps 617 mmHg 55%
    16:00 -1°C° 0 mm 5 mps 617 mmHg 57%
    17:00 -2°C° 0 mm 4 mps 617 mmHg 59%
    18:00 -2°C° 0 mm 5 mps 617 mmHg 63%
    19:00 -3°C° 0 mm 6 mps 617 mmHg 67%
    20:00 -3°C° 0 mm 7 mps 616 mmHg 70%
    21:00 -4°C° 0 mm 9 mps 616 mmHg 69%
    22:00 -3°C° 0 mm 10 mps 616 mmHg 67%
    23:00 -3°C° 0 mm 12 mps 616 mmHg 65%

    Day after tomorrow, 24 November, Sunday

    Time Temperature Precipitation Wind Pressure Humidity
    00:00 -3°C° 0 mm 12 mps 616 mmHg 65%
    01:00 -3°C° 0 mm 12 mps 615 mmHg 66%
    02:00 -4°C° 0 mm 13 mps 615 mmHg 66%
    03:00 -3°C° 0 mm 12 mps 615 mmHg 68%
    04:00 -3°C° 0 mm 11 mps 614 mmHg 70%
    05:00 -3°C° 0 mm 10 mps 614 mmHg 72%
    06:00 -3°C° 0.2 mm 10 mps 614 mmHg 75%
    07:00 -3°C° 0.2 mm 9 mps 613 mmHg 78%
    08:00 -3°C° 0.2 mm 9 mps 613 mmHg 82%
    09:00 -3°C° 0.3 mm 10 mps 613 mmHg 79%
    10:00 -2°C° 0.3 mm 11 mps 613 mmHg 77%
    11:00 -2°C° 0.3 mm 12 mps 613 mmHg 74%
    12:00 -2°C° 0.2 mm 11 mps 613 mmHg 70%
    13:00 -3°C° 0.2 mm 11 mps 613 mmHg 66%
    14:00 -3°C° 0.2 mm 10 mps 613 mmHg 62%
    15:00 -4°C° 0 mm 9 mps 614 mmHg 62%
    16:00 -4°C° 0 mm 7 mps 614 mmHg 62%
    17:00 -6°C° 0 mm 6 mps 614 mmHg 62%
    18:00 -6°C° 0 mm 5 mps 615 mmHg 65%
    19:00 -7°C° 0 mm 4 mps 615 mmHg 69%
    20:00 -8°C° 0 mm 4 mps 615 mmHg 73%
    21:00 -8°C° 0 mm 5 mps 615 mmHg 71%
    22:00 -9°C° 0 mm 6 mps 615 mmHg 69%
    23:00 -9°C° 0 mm 6 mps 615 mmHg 67%

    25 November, Monday

    Time Temperature Precipitation Wind Pressure Humidity
    00:00 -9°C° 0 mm 6 mps 615 mmHg 68%
    01:00 -8°C° 0 mm 5 mps 615 mmHg 68%
    02:00 -8°C° 0 mm 5 mps 615 mmHg 69%
    03:00 -9°C° 0 mm 4 mps 614 mmHg 71%
    04:00 -9°C° 0 mm 4 mps 614 mmHg 74%
    05:00 -9°C° 0 mm 3 mps 614 mmHg 77%
    06:00 -9°C° 0 mm 3 mps 614 mmHg 78%
    07:00 -9°C° 0 mm 3 mps 613 mmHg 79%
    08:00 -9°C° 0 mm 2 mps 613 mmHg 80%
    09:00 -8°C° 0 mm 3 mps 613 mmHg 74%
    10:00 -7°C° 0 mm 3 mps 614 mmHg 69%
    11:00 -5°C° 0 mm 3 mps 614 mmHg 63%
    12:00 -5°C° 0.1 mm 4 mps 614 mmHg 60%
    13:00 -5°C° 0.1 mm 4 mps 613 mmHg 57%
    14:00 -5°C° 0.1 mm 5 mps 613 mmHg 54%
    15:00 -5°C° 0 mm 4 mps 613 mmHg 58%
    16:00 -7°C° 0 mm 3 mps 612 mmHg 63%
    17:00 -7°C° 0 mm 2 mps 612 mmHg 67%
    18:00 -7°C° 0 mm 2 mps 611 mmHg 70%
    19:00 -8°C° 0 mm 2 mps 611 mmHg 73%
    20:00 -8°C° 0 mm 2 mps 611 mmHg 77%
    21:00 -8°C° 0 mm 2 mps 611 mmHg 78%
    22:00 -8°C° 0 mm 2 mps 610 mmHg 79%
    23:00 -8°C° 0 mm 2 mps 610 mmHg 80%

    26 November, Tuesday

    Time Temperature Precipitation Wind Pressure Humidity
    00:00 -7°C° 0.4 mm 1 mps 610 mmHg 84%
    01:00 -7°C° 0.4 mm 1 mps 609 mmHg 87%
    02:00 -7°C° 0.4 mm 1 mps 609 mmHg 91%
    03:00 -8°C° 0.5 mm 2 mps 609 mmHg 89%
    04:00 -9°C° 0.5 mm 2 mps 609 mmHg 88%
    05:00 -10°C° 0.5 mm 3 mps 609 mmHg 86%
    06:00 -10°C° 0.2 mm 3 mps 609 mmHg 88%
    07:00 -12°C° 0.2 mm 3 mps 609 mmHg 90%
    08:00 -10°C° 0.2 mm 2 mps 609 mmHg 91%
    09:00 -10°C° 0.3 mm 2 mps 609 mmHg 88%
    10:00 -10°C° 0.3 mm 3 mps 610 mmHg 85%
    11:00 -10°C° 0.3 mm 3 mps 610 mmHg 82%
    12:00 -10°C° 0.1 mm 3 mps 610 mmHg 80%
    13:00 -9°C° 0.1 mm 2 mps 610 mmHg 78%
    14:00 -8°C° 0.1 mm 2 mps 610 mmHg 76%
    15:00 -9°C° 0.1 mm 2 mps 610 mmHg 78%
    16:00 -10°C° 0.1 mm 2 mps 611 mmHg 80%
    17:00 -10°C° 0.1 mm 2 mps 611 mmHg 82%
    18:00 -12°C° 0 mm 2 mps 611 mmHg 82%
    19:00 -13°C° 0 mm 3 mps 612 mmHg 83%
    20:00 -14°C° 0 mm 3 mps 612 mmHg 83%
    21:00 -14°C° 0.1 mm 3 mps 612 mmHg 85%
    22:00 -15°C° 0.1 mm 4 mps 613 mmHg 86%
    23:00 -15°C° 0.1 mm 4 mps 613 mmHg 88%

    27 November, Wednesday

    Time Temperature Precipitation Wind Pressure Humidity
    00:00 -16°C° 0.3 mm 4 mps 613 mmHg 89%
    01:00 -17°C° 0.3 mm 5 mps 613 mmHg 91%
    02:00 -17°C° 0.3 mm 5 mps 613 mmHg 92%
    03:00 -17°C° 0.4 mm 5 mps 613 mmHg 92%
    04:00 -18°C° 0.4 mm 6 mps 613 mmHg 93%
    05:00 -18°C° 0.4 mm 6 mps 613 mmHg 93%
    06:00 -20°C° 0.5 mm 6 mps 613 mmHg 93%
    07:00 -20°C° 0.5 mm 6 mps 614 mmHg 93%
    08:00 -20°C° 0.5 mm 7 mps 614 mmHg 94%
    09:00 -20°C° 0.7 mm 7 mps 614 mmHg 93%
    10:00 -21°C° 0.7 mm 8 mps 613 mmHg 93%
    11:00 -21°C° 0.7 mm 8 mps 613 mmHg 93%
    12:00 -21°C° 0.8 mm 8 mps 613 mmHg 93%
    13:00 -21°C° 0.8 mm 8 mps 612 mmHg 93%
    14:00 -21°C° 0.8 mm 9 mps 612 mmHg 94%
    15:00 -22°C° 0.9 mm 8 mps 612 mmHg 94%
    16:00 -22°C° 0.9 mm 8 mps 612 mmHg 95%
    17:00 -22°C° 0.9 mm 8 mps 611 mmHg 95%
    18:00 -23°C° 0.8 mm 7 mps 611 mmHg 95%
    19:00 -23°C° 0.8 mm 7 mps 612 mmHg 95%
    20:00 -22°C° 0.8 mm 6 mps 612 mmHg 95%
    21:00 -22°C° 0.6 mm 6 mps 612 mmHg 96%
    22:00 -21°C° 0.6 mm 5 mps 612 mmHg 96%
    23:00 -20°C° 0.6 mm 4 mps 612 mmHg 96%
    Show more